Theta_e
330 338 342 343 345 346 347 349 352 357 365 368 365 367 370 371 370 361 358 359 353 355 357 355 359 356 354 351 351 350 348 342 339
328 335 339 342 345 346 350 350 354 360 366 370 368 364 368 366 367 367 362 362 361 356 360 356 355 353 351 348 346 344 342 339 339
330 336 338 342 344 347 350 351 354 358 367 368 365 361 362 361 362 364 363 362 364 361 359 356 353 350 348 345 342 341 341 339 338
327 335 338 341 344 346 351 352 353 355 360 361 361 359 362 362 361 361 361 361 361 359 355 353 351 349 345 341 339 339 341 339 336
327 335 338 340 343 346 348 356 357 356 358 360 360 360 363 360 361 362 360 359 357 355 351 351 349 345 340 338 338 339 336 333 331
330 334 339 341 342 345 352 353 359 357 362 361 359 360 358 358 359 359 357 356 354 352 350 347 343 340 337 337 337 336 335 332 326
333 333 339 342 342 346 351 355 357 363 359 359 359 358 361 363 360 358 354 354 352 349 347 341 339 337 337 335 333 333 331 325 326
334 334 334 341 342 345 352 356 361 361 357 360 361 365 362 362 363 360 357 351 349 346 340 337 336 335 335 332 329 327 327 327 326
334 336 334 339 345 346 350 352 357 358 362 362 368 367 363 361 356 355 350 348 344 340 336 333 334 333 332 329 323 327 329 330 326
337 338 337 338 342 347 351 352 356 356 363 363 365 363 359 355 352 348 346 345 340 336 333 332 332 332 332 330 327 325 324 322 324
342 343 343 340 342 345 349 353 355 359 359 364 362 357 353 349 347 346 345 340 337 334 331 330 330 330 331 331 328 322 322 323 326
346 347 346 344 344 347 350 352 356 361 358 358 356 353 348 347 349 345 341 338 336 333 329 327 328 329 330 330 328 323 322 324 328
349 350 348 345 344 348 352 354 357 359 358 356 351 349 345 350 350 344 338 337 336 330 327 326 324 326 329 327 327 319 322 324 325
348 351 352 352 350 349 354 356 357 356 354 353 349 345 350 350 347 342 340 337 333 327 323 324 329 326 326 327 326 320 317 320 329
347 346 350 353 352 355 357 358 354 352 351 347 343 350 349 347 343 340 337 331 327 327 328 328 330 328 322 322 326 320 315 315 316
347 346 344 345 347 350 352 351 352 347 342 340 343 349 346 343 342 338 333 328 325 322 327 322 322 320 319 319 324 324 316 313 314
347 346 344 342 341 341 342 346 342 339 339 343 345 343 342 339 336 334 330 327 326 323 322 321 320 319 319 320 323 324 325 322 321
343 346 345 343 340 340 340 340 340 340 341 343 344 339 337 336 335 333 330 330 327 324 328 320 320 320 320 320 321 323 323 322 325
338 346 346 342 342 340 338 337 338 338 343 344 340 335 337 335 332 333 332 329 325 312 313 313 309 308 314 322 313 308 309 306 304
332 340 349 347 344 343 340 336 337 338 339 340 339 340 337 335 331 333 332 329 325 319 317 309 307 307 306 306 305 303 303 301 304
Wind_Speed
2 18 21 25 22 20 21 21 21 18 18 17 18 17 16 13 12 9 9 10 6 4 3 6 9 6 4 3 2 2 1 3 3
8 12 19 25 25 22 20 19 19 18 19 17 17 18 14 14 13 12 10 9 8 5 6 7 6 6 5 4 2 2 0 6 3
8 9 16 21 23 22 21 21 18 19 19 18 19 19 16 15 15 13 10 8 8 8 6 7 8 6 6 6 5 4 2 5 4
2 11 15 18 21 23 20 21 21 20 20 21 20 18 16 15 14 15 12 9 9 9 9 9 8 7 6 5 5 5 5 7 5
7 7 14 17 21 23 22 19 19 20 21 21 20 18 16 16 15 14 11 11 11 10 11 10 9 7 7 7 7 6 7 6 7
5 5 10 13 19 21 19 19 17 19 19 19 19 19 18 18 17 14 13 13 12 13 12 11 10 9 8 8 7 7 5 6 6
8 8 10 12 16 17 19 19 19 17 20 20 20 19 18 16 16 14 14 12 11 10 10 10 10 9 9 9 8 7 8 8 7
9 9 11 14 15 18 19 19 17 18 19 18 19 16 17 15 13 12 12 12 11 10 10 9 9 10 10 9 9 8 9 8 7
11 12 11 13 16 18 20 20 17 17 16 17 15 15 15 14 13 12 13 11 12 11 10 10 9 9 10 9 7 14 6 6 7
8 9 11 12 16 17 18 18 17 17 15 17 16 15 14 15 15 14 13 13 13 12 11 10 10 10 10 9 9 12 7 3 7
11 10 9 11 12 16 17 17 19 17 18 16 16 15 17 17 16 15 15 16 14 13 11 11 10 10 10 9 9 10 8 4 6
11 13 9 9 11 11 13 16 19 17 16 17 17 17 17 17 18 18 17 15 13 12 12 11 10 10 10 10 11 11 9 7 7
13 13 10 8 7 10 12 13 18 17 18 18 17 18 17 17 17 16 15 15 15 12 10 11 10 10 10 9 10 10 11 11 9
13 15 13 12 7 8 11 12 16 18 15 16 14 17 18 16 17 17 15 13 10 10 11 13 10 11 10 10 10 11 11 12 10
10 12 14 13 5 5 6 8 12 13 11 12 16 17 16 17 17 14 12 12 11 11 11 10 9 10 10 10 10 11 10 10 12
9 9 7 8 9 1 3 6 6 11 10 16 16 16 16 16 15 12 13 13 12 10 7 10 11 11 10 11 10 10 13 13 9
9 7 6 4 3 3 5 3 6 12 15 15 15 14 14 11 13 11 13 12 10 9 9 9 9 10 10 10 11 11 12 11 10
6 4 5 2 3 5 5 6 9 14 14 13 14 13 10 13 11 14 13 11 10 10 10 9 11 10 10 10 9 10 11 10 11
12 4 3 4 5 6 5 6 7 12 10 12 12 11 11 11 12 11 12 11 10 9 5 10 11 10 4 6 12 11 10 10 11
7 10 8 9 9 7 7 7 6 6 9 10 12 10 13 11 11 11 12 12 11 11 4 6 9 7 3 8 9 9 8 9 7
Wind_Direction
243 187 197 189 199 193 184 190 179 182 171 182 191 191 191 189 188 191 204 199 182 189 154 121 147 166 156 155 151 117 81 167 16
160 198 200 188 196 191 181 191 181 180 170 180 184 189 188 187 188 209 199 174 195 188 155 125 139 152 144 128 116 43 36 75 103
139 201 197 193 191 195 179 188 181 182 173 180 180 185 187 189 191 202 190 178 186 187 133 129 149 156 157 150 144 143 191 166 103
188 188 191 198 190 191 188 186 180 184 181 186 185 185 184 186 190 191 190 176 183 165 142 149 165 167 157 149 135 138 105 78 114
307 214 195 196 190 188 190 183 181 186 185 190 187 183 178 182 187 185 178 167 168 157 157 164 158 161 158 151 144 145 147 166 113
332 261 215 199 191 186 183 181 184 188 184 187 187 180 180 180 183 169 178 179 166 164 165 161 155 161 161 151 150 154 145 124 138
330 288 239 221 197 189 182 189 185 187 185 187 188 179 181 173 173 171 175 167 161 163 163 161 157 160 157 154 154 161 149 147 143
318 288 255 213 211 188 185 192 184 188 188 183 186 174 176 162 161 156 151 161 152 158 163 157 162 159 157 161 164 162 151 151 146
313 297 270 234 208 196 191 193 188 186 187 177 172 164 168 149 144 154 150 150 153 156 164 157 166 169 163 169 186 98 106 162 152
315 316 293 264 218 212 193 193 186 186 185 169 158 161 147 145 148 153 149 155 155 164 164 161 171 173 172 183 126 125 140 261 152
319 311 291 273 253 208 193 198 178 177 182 168 160 160 151 155 158 155 153 158 163 162 167 167 176 175 180 183 144 150 172 239 188
333 316 299 263 254 225 202 195 167 169 172 169 163 161 159 160 160 155 162 163 160 162 160 172 173 177 182 189 141 170 189 212 203
349 340 329 316 241 208 181 197 163 168 169 170 170 162 157 165 160 156 160 165 163 158 162 167 172 174 185 186 156 174 192 208 233
3 342 354 343 301 210 172 190 161 175 174 179 161 149 161 160 162 164 169 157 158 161 166 153 174 175 180 181 168 175 195 217 254
11 359 350 348 310 27 113 149 141 175 183 142 151 160 162 163 166 165 158 152 155 169 166 149 165 176 181 178 173 168 201 220 237
37 3 3 349 343 48 164 176 181 173 140 149 161 166 168 170 164 154 151 154 158 169 182 157 179 181 191 180 183 179 180 204 232
16 357 345 14 328 245 213 207 113 134 158 165 166 160 170 156 161 152 159 162 166 174 178 179 197 187 197 194 184 199 181 197 203
355 337 321 292 266 266 210 163 165 161 167 170 171 158 159 164 160 160 168 179 176 188 189 197 186 194 199 204 197 201 171 181 194
306 269 243 257 248 235 202 182 178 179 178 170 155 157 168 170 158 173 179 180 164 60 95 126 95 78 42 113 100 91 90 97 96
299 295 232 225 210 217 194 187 189 174 157 159 163 171 176 171 173 181 183 186 179 185 133 93 117 118 78 75 106 95 90 78 66